Overview Statistics Trail Chart Weather Telemetry Raw packets
 

This is the latest recevied weather packets stored in our database for station/object W0WFX-2. If no packets are shown the sender has not sent any weather packets the latest 10 day(s).

<< 50 51 52 53 54 55 56 >>
Time Temp. Humidity Pressure Rain* Wind** Luminosity Snow
1788301719 37.22° C 31% 1013.5 hPa 0 mm - 127 W/m² -
1788301415 37.78° C 31% 1013.4 hPa 0 mm - 248 W/m² -
1788301110 37.78° C 30% 1013.3 hPa 0 mm - 300 W/m² -
1788300806 37.22° C 30% 1013.5 hPa 0 mm - 313 W/m² -
1788300505 37.22° C 30% 1013.4 hPa 0 mm - 331 W/m² -
1788300205 37.78° C 31% 1013.5 hPa 0 mm - 345 W/m² -
1788299904 37.78° C 29% 1013.5 hPa 0 mm - 361 W/m² -
1788299603 37.78° C 30% 1013.4 hPa 0 mm - 377 W/m² -
1788299302 38.33° C 29% 1013.6 hPa 0 mm - 383 W/m² -
1788299001 37.78° C 30% 1013.7 hPa 0 mm - 411 W/m² -
1788298696 37.78° C 30% 1013.6 hPa 0 mm - 421 W/m² -
1788298395 37.78° C 29% 1013.8 hPa 0 mm - 403 W/m² -
1788298090 37.78° C 29% 1013.7 hPa 0 mm - 92 W/m² -
1788297786 37.78° C 29% 1013.7 hPa 0 mm - 97 W/m² -
1788297481 37.78° C 30% 1013.7 hPa 0 mm - 93 W/m² -
1788297178 37.78° C 30% 1013.7 hPa 0 mm - 92 W/m² -
1788296873 37.78° C 28% 1014.1 hPa 0 mm - 93 W/m² -
1788296568 37.78° C 28% 1014 hPa 0 mm - 92 W/m² -
1788296264 37.78° C 29% 1014.1 hPa 0 mm - 92 W/m² -
1788295964 38.33° C 30% 1014.2 hPa 0 mm - 95 W/m² -
1788295660 37.78° C 29% 1014.1 hPa 0 mm - 95 W/m² -
1788295356 37.78° C 29% 1014.1 hPa 0 mm - 95 W/m² -
1788295051 37.78° C 30% 1014.2 hPa 0 mm - 99 W/m² -
1788294750 38.33° C 28% 1014.2 hPa 0 mm - 98 W/m² -
1788294450 37.78° C 29% 1014.2 hPa 0 mm - 98 W/m² -

* Rain latest hour (hover to see other rain measurements)
** Current wind speed in m/s (hover to see current wind gust speed)